7 * 24
多渠道服务支持
STARLINK-11680 是 SpaceX Starlink 卫星互联网项目中的一个组成部分,属于低地球轨道(LEO)卫星群。该卫星于2023年发射,旨在为全球用户提供高速、低延迟的宽带互联网服务。Starlink 项目计划部署数千颗卫星,以改善偏远地区的网络接入。STARLINK-11680 与其他 Starlink 卫星协同工作,通过高频通信技术实现全球覆盖。该项目在提升全球通信能力的同时,也引发了对太空拥堵和光污染的担忧。
美国
(US)
| 数据来源 | 国际轨道数据 |
| 星历时间: | 2025-11-02T07:52:30+0800 1天前 查看轨道信息 |
| 半长轴: | 6734.288km |
| 偏心率: | 0.0001489 |
| 轨道倾角: | 43.000° |
| 近地点辐角 | 250.257° |
| 升交点赤经 | 203.672° |
| 平近点角 | 109.814° |
| 近地点: | 355.15km |
| 远地点: | 357.156km |
| 周期: | 91.664分钟 |
| 每日圈数: | 15.709605 |